OK1ALX-6 Weather Reports


time (UTC)temp
C
wind
direction
speed
KPH
gust
KPH
rain 1hr
cm
rain 24hr
cm
rain mn
cm
humidity
%
barometer
mb
20260502163008 23 125 3.2 6.4 0.00 0.00 0.00 27 1023.3
20260502162003 23 129 3.2 6.4 0.00 0.00 0.00 29 1023.1
20260502161003 23 128 3.2 6.4 0.00 0.00 0.00 28 1023.3
20260502152003 23 191 3.2 9.7 0.00 0.00 0.00 26 1023.9
20260502151003 23 203 3.2 4.8 0.00 0.00 0.00 26 1024.0
20260502123003 22 251 3.2 6.4 0.00 0.00 0.00 27 1026.3
20260502122003 21 93 3.2 6.4 0.00 0.00 0.00 29 1026.5
20260502121003 23 66 1.6 9.7 0.00 0.00 0.00 27 1026.5
20260502115003 21 92 3.2 11.3 0.00 0.00 0.00 28 1026.8
20260502113003 22 24 3.2 6.4 0.00 0.00 0.00 30 1027.3
20260502112003 21 62 4.8 11.3 0.00 0.00 0.00 30 1027.7
20260502111007 21 85 3.2 11.3 0.00 0.00 0.00 30 1027.3
20260502110003 20 115 3.2 11.3 0.00 0.00 0.00 32 1027.8
20260502105003 21 89 4.8 14.5 0.00 0.00 0.00 31 1027.6
20260502104003 20 112 6.4 12.9 0.00 0.00 0.00 31 1027.8
20260502103003 21 53 3.2 9.7 0.00 0.00 0.00 32 1027.8
20260502102003 20 155 4.8 12.9 0.00 0.00 0.00 35 1028.1
20260502101003 20 139 3.2 14.5 0.00 0.00 0.00 36 1028.3
20260502091003 19 12 1.6 9.7 0.00 0.00 0.00 35 1029.0
20260502071003 15 9 1.6 4.8 0.00 0.00 0.00 55 1030.4
20260502070003 15 7 0.0 3.2 0.00 0.00 0.00 55 1030.6
20260502065003 14 7 0.0 3.2 0.00 0.00 0.00 57 1030.9
20260502064003 14 8 0.0 1.6 0.00 0.00 0.00 58 1030.7
20260502063003 13 332 0.0 3.2 0.00 0.00 0.00 62 1030.8
20260502062003 13 192 0.0 1.6 0.00 0.00 0.00 63 1031.0
20260502061003 13 0 0.0 0.0 0.00 0.00 0.00 64 1031.0
20260502014003 5 0 0.0 0.0 0.00 0.00 0.00 83 1032.4
20260502013003 5 0 0.0 0.0 0.00 0.00 0.00 82 1032.3
20260502012003 6 0 0.0 0.0 0.00 0.00 0.00 81 1032.3
20260502010003 6 242 0.0 3.2 0.00 0.00 0.00 82 1032.3
20260502005003 5 0 0.0 0.0 0.00 0.00 0.00 83 1032.6
20260502004003 5 0 0.0 0.0 0.00 0.00 0.00 83 1032.3
20260502003003 6 243 0.0 3.2 0.00 0.00 0.00 82 1032.2
20260502002003 6 264 1.6 6.4 0.00 0.00 0.00 80 1032.4
20260502001003 6 271 0.0 1.6 0.00 0.00 0.00 81 1032.6
20260502000003 6 0 0.0 0.0 0.00 0.00 0.00 82 1032.5
20260501235003 6 270 0.0 4.8 0.00 0.00 0.00 81 1032.4
20260501234003 6 269 0.0 4.8 0.00 0.00 0.00 81 1032.5
20260501233003 6 0 0.0 0.0 0.00 0.00 0.00 81 1032.5
20260501232003 6 0 0.0 0.0 0.00 0.00 0.00 81 1032.4
20260501231003 6 0 0.0 0.0 0.00 0.00 0.00 81 1032.5
20260501230003 6 0 0.0 0.0 0.00 0.00 0.00 80 1032.6
20260501225003 7 0 0.0 0.0 0.00 0.00 0.00 78 1032.6
20260501224003 7 232 0.0 1.6 0.00 0.00 0.00 78 1032.4
20260501223003 7 0 0.0 0.0 0.00 0.00 0.00 78 1032.4
20260501222003 8 0 0.0 0.0 0.00 0.00 0.00 76 1032.1
20260501221003 7 0 0.0 0.0 0.00 0.00 0.00 77 1032.3
20260501220020 8 0 0.0 0.0 0.00 0.00 0.00 75 1032.2
20260501215003 8 0 0.0 0.0 0.00 0.00 0.00 75 1032.5
20260501214003 8 0 0.0 0.0 0.00 0.00 0.00 75 1032.3
20260501213003 8 236 0.0 1.6 0.00 0.00 0.00 74 1032.3
20260501212003 10 236 0.0 3.2 0.00 0.00 0.00 70 1031.9
20260501211003 10 236 0.0 3.2 0.00 0.00 0.00 71 1032.1
20260501210003 9 0 0.0 0.0 0.00 0.00 0.00 72 1032.3
20260501205003 10 223 0.0 1.6 0.00 0.00 0.00 69 1031.9
20260501204003 10 0 0.0 0.0 0.00 0.00 0.00 70 1032.1
20260501203003 10 224 1.6 4.8 0.00 0.00 0.00 68 1031.7
20260501202003 11 209 0.0 3.2 0.00 0.00 0.00 68 1031.9
20260501201003 11 0 0.0 0.0 0.00 0.00 0.00 65 1031.8
20260501200003 11 215 0.0 1.6 0.00 0.00 0.00 64 1031.6
20260501195003 11 222 1.6 6.4 0.00 0.00 0.00 64 1031.5
20260501194003 12 223 4.8 4.8 0.00 0.00 0.00 63 1031.3
20260501193003 12 226 0.0 4.8 0.00 0.00 0.00 62 1031.4
20260501192003 12 0 0.0 0.0 0.00 0.00 0.00 61 1031.3
20260501191003 13 229 1.6 4.8 0.00 0.00 0.00 59 1031.0
20260501190003 14 221 4.8 6.4 0.00 0.00 0.00 56 1031.1
20260501185003 14 224 4.8 6.4 0.00 0.00 0.00 56 1030.9
20260501184003 15 223 3.2 4.8 0.00 0.00 0.00 52 1031.0
20260501183003 16 218 1.6 3.2 0.00 0.00 0.00 51 1030.4
20260501182003 16 0 0.0 0.0 0.00 0.00 0.00 49 1030.2
20260501181003 17 0 0.0 0.0 0.00 0.00 0.00 48 1030.2
20260501180004 18 0 0.0 0.0 0.00 0.00 0.00 45 1029.7
20260501175003 20 293 1.6 3.2 0.00 0.00 0.00 40 1029.7
20260501174011 20 306 0.0 3.2 0.00 0.00 0.00 39 1029.6
20260501173003 20 312 1.6 4.8 0.00 0.00 0.00 37 1029.6
20260501172003 20 291 3.2 4.8 0.00 0.00 0.00 37 1029.5
20260501171011 20 260 3.2 4.8 0.00 0.00 0.00 37 1029.3
20260501170003 20 293 4.8 6.4 0.00 0.00 0.00 37 1029.5
20260501165003 20 325 4.8 9.7 0.00 0.00 0.00 37 1029.3
20260501164003 20 301 6.4 11.3 0.00 0.00 0.00 36 1029.8